Regional Weather Roundup
Issued by NWS Bismarck, ND

Home | Current Version | Previous Version | Text Only | Print | Product List | Glossary On
Versions: 1 2 3 4 5 6 7 8 9 10 11 12 13 14 15 16 17 18 19 20 21 22 23 24 25 26 27 28 29 30 31 32 33 34 35 36 37 38 39 40 41 42 43 44 45 46 47 48 49 50
000
ASUS43 KBIS 061902
RWRBIS

NWR BROADCAST TEXT
NATIONAL WEATHER SERVICE BISMARCK ND
200 PM CDT MON JUL 06 2015

NOTE: "FAIR" INDICATES FEW OR NO CLOUDS BELOW 12,000 FEET WITH NO
SIGNIFICANT WEATHER AND/OR OBSTRUCTIONS TO VISIBILITY.


CITY           SKY/WX    TMP DP  RH WIND       PRES   REMARKS
WILLISTON      PTSUNNY   67  50  54 N12       30.20S HAZE
MINOT          PTSUNNY   63  49  60 N8        30.17F
MINOT AFB      NOT AVBL
BISMARCK       CLOUDY    69  53  56 NE13      30.15F HAZE
DICKINSON      CLOUDY    66  51  58 N15       30.17F
GARRISON         N/A     61  53  75 N5        30.17R
HETTINGER ARPT PTSUNNY   69  50  50 NW8       30.21S
JAMESTOWN      PTSUNNY   64  52  64 N10       30.12S
HAZEN          FAIR      66  50  55 N8        30.17S HAZE
OAKES            N/A     68  55  64 NW17G23   30.10F
STANLEY        MOCLDY    63  55  77 CALM      30.20S
$$

CITY           SKY/WX    TMP DP  RH WIND       PRES   REMARKS
GRAND FORKS    PTSUNNY   63  50  62 N13G21    30.10S
GRAND FORKS AF PTSUNNY   62  49  62 N12       30.12R
DEVILS LAKE    CLOUDY    61  46  59 N12       30.13S
FARGO          MOSUNNY   68  48  48 N24       30.08S
CAVALIER       CLOUDY    59  48  67 N13G21    30.12R
GRAFTON        MOCLDY    63  50  63 N15       30.12S
GWINNER        FAIR      68  50  52 N17G23    30.11R
LANGDON        MOCLDY    64  48  55 N14G21    30.14R
$$

CITY           SKY/WX    TMP DP  RH WIND       PRES   REMARKS
ABERDEEN       MOSUNNY   71  55  56 N18       30.10R
MOBRIDGE       MOSUNNY   74  52  46 N12       30.12S HAZE
BUFFALO          N/A     70  51  51 W9        30.16S
RAPID CITY     CLOUDY    68  54  60 NW9       30.23F
GLASGOW        MOSUNNY   71  44  37 SW10      30.19F
SIDNEY         MOSUNNY   72  46  40 W8        30.19F
WOLF POINT     PTSUNNY   71  48  43 NW6       30.19F HAZE
GLENDIVE       MOSUNNY   70  46  43 NW12      30.21S
MILES CITY     CLOUDY    68  50  52 W6        30.22F
BAKER          MOSUNNY   69  49  48 W14       30.22F
$$

CITY           SKY/WX    TMP DP  RH WIND       PRES   REMARKS
BILLINGS       MOSUNNY   68  49  50 E7        30.25F
GREAT FALLS    MOSUNNY   66  49  54 VRB3      30.18F
$$



USA.gov is the U.S. government's official web portal to all federal, state and local government web resources and services.